Regional Weather Roundup
Issued by NWS

Home | Current Version | Previous Version | Graphics & Text | Print | Product List | Glossary On
Versions: 1 2 3 4 5 6 7 8 9 10 11 12 13 14 15 16 17 18 19 20 21 22 23 24 25 26 27 28 29 30 31 32 33 34 35 36 37 38 39 40 41 42 43 44 45 46 47 48 49 50
000
ASUS43 KMKX 231900
RWRWI

WISCONSIN REGIONAL WEATHER ROUNDUP
NATIONAL WEATHER SERVICE MILWAUKEE/SULLIVAN WI
200 PM CDT TUE MAY 23 2017

NOTE: "FAIR" INDICATES FEW OR NO CLOUDS BELOW 12,000 FEET WITH NO
SIGNIFICANT WEATHER AND/OR OBSTRUCTIONS TO VISIBILITY.

WIZ001-002-006>008-014>016-023>028-232000-
NORTHWEST WISCONSIN

CITY           SKY/WX    TMP DP  RH WIND       PRES   REMARKS
SUPERIOR ARPT  NOT AVBL
ASHLAND        CLOUDY    53  46  77 NE16      29.87F
HAYWARD        CLOUDY    57  44  62 NE13      29.83F
SIREN          CLOUDY    56  42  59 E6        29.84S
CUMBERLAND     CLOUDY    54  45  71 N9        29.82S
RICE LAKE      CLOUDY    55  45  70 E5        29.83S
CHETEK         CLOUDY    56  46  69 NE6       29.81F
LADYSMITH      CLOUDY    55  45  69 NE6       29.83F
EAU CLAIRE     NOT AVBL
MENOMONIE      LGT RAIN  54  49  83 N7        29.80F
NEW RICHMOND   CLOUDY    56  45  66 NE7       29.82S
OSCEOLA        CLOUDY    61  46  56 NE10      29.84S
$$

WIZ003>005-009-010-017-018-232000-
NORTH CENTRAL WISCONSIN

CITY           SKY/WX    TMP DP  RH WIND       PRES   REMARKS
MANITOWISH WTR CLOUDY    53  49  83 SE6       29.83F
ARBOR VITAE    CLOUDY    52  49  90 N5        29.83S
WOODRUFF       CLOUDY    52  49  90 N5        29.83S
RHINELANDER    CLOUDY    57  45  64 E8        29.81F
EAGLE RIVER    PTSUNNY   56  41  57 NE5       29.82F
LAND O LAKES   CLOUDY    53  47  79 N6        29.84F
PHILLIPS       CLOUDY    54  43  66 NE8       29.81F
TOMAHAWK       CLOUDY    55  45  70 NE3       29.81F
MEDFORD        CLOUDY    55  44  66 NE14      29.79S
MERRILL        LGT RAIN  56  46  70 SE6       29.80S
$$

WIZ029-030-035-036-043>047-232000-
CENTRAL WISCONSIN

CITY           SKY/WX    TMP DP  RH WIND       PRES   REMARKS
WAUSAU         CLOUDY    57  45  64 E13       29.77F
MOSINEE        NOT AVBL
MARSHFIELD     CLOUDY    57  46  66 NE16      29.76F
STEVENS POINT  CLOUDY    54  44  68 NE13      29.78F
WAUPACA        CLOUDY    57  48  72 N8        29.76F
WAUTOMA        CLOUDY    58  52  80 NE13G22   29.74S
WISC RAPIDS    CLOUDY    59  48  67 E12       29.75F
CAMP DOUGLAS   NOT AVBL
$$

WIZ011>013-019>022-031-037>040-048>050-232000-
NORTHEAST WISCONSIN

CITY           SKY/WX    TMP DP  RH WIND       PRES   REMARKS
ANTIGO         CLOUDY    53  44  69 E9        29.81S
SHAWANO        CLOUDY    55  49  81 NE9       29.79F
OCONTO         CLOUDY    52  47  83 NE8       29.80F
STURGEON BAY   CLOUDY    52  44  74 NE10      29.81S
GREEN BAY      CLOUDY    54  49  83 NE17G24   29.78F
MANITOWOC      NOT AVBL
APPLETON       CLOUDY    54  46  76 NE17      29.75F
CLINTONVILLE   CLOUDY    54  46  76 NE10      29.78F
OSHKOSH        CLOUDY    56  51  84 N15       29.74S
$$

WIZ032>034-041-042-053>061-232000-
SOUTHWEST WISCONSIN

CITY           SKY/WX    TMP DP  RH WIND       PRES   REMARKS
LA CROSSE      LGT RAIN  59  51  75 N7        29.73F
SPARTA         CLOUDY    58  51  75 NE3       29.73F
VIROQUA        CLOUDY    55  53  95 MISG      29.73S
BOSCOBEL       CLOUDY    63  51  65 W6        29.71F
PRAIRIE DU CHI CLOUDY    59  51  73 W7        29.73S
PLATTEVILLE    PTSUNNY   59  54  83 SW5       29.73F
$$

WIZ056-057-062-063-064-067-068-232000-
SOUTH CENTRAL WISCONSIN

CITY           SKY/WX    TMP DP  RH WIND       PRES   REMARKS
REEDSBURG      CLOUDY    60  54  78 NE3       29.71F
BARABOO/DELLS  CLOUDY    61  48  62 CALM      29.72F
LONE ROCK      CLOUDY    62  52  69 VRB5      29.71F
MINERAL POINT  CLOUDY    61  54  77 SW3       29.73F
MADISON        CLOUDY    62  50  64 SW5       29.71F
MIDDLETON      PTSUNNY   63  52  67 CALM      29.72F
WATERTOWN      CLOUDY    62  53  71 SW5       29.72F
MONROE         CLOUDY    61  50  67 CALM      29.72F
JANESVILLE     HVY RAIN  61  57  88 NW6       29.72F FOG
$$

WIZ051-052-058>065-066-070>072-232000-
SOUTHEAST WISCONSIN

CITY           SKY/WX    TMP DP  RH WIND       PRES   REMARKS
MILWAUKEE      CLOUDY    65  53  65 SE9       29.73F THUNDER
WAUKESHA       PTSUNNY   59  54  82 SW7       29.75F
MILWAUKEE/TIMM MOSUNNY   64  50  59 S6        29.73F
RACINE         CLOUDY    61  52  72 S14       29.75F
KENOSHA        CLOUDY    62  51  67 S9        29.74F
FOND DU LAC    CLOUDY    59  54  83 NE15      29.73S
SHEBOYGAN      RAIN      50  50 100 NE6       29.76S FOG
WEST BEND      PTSUNNY   63  54  72 S6        29.72F
JUNEAU         CLOUDY    63  53  70 S8        29.73F
$$

LSZ147-162-232000-
LAKE SUPERIOR

STATION/POSITION TIME  TEMP    WIND        PRES    WAVE
                       AIR SEA DIR/SP/G            HT/PER
                 (UTC) (F)     (DEG/KT/KT) (MB)    (FT/S)
W MID LAKE BUOY  1750   40 37   30/  8/  8 1012.9F   0
DEVILS ISLAND    1800   42      50/ 12/ 13 1013.0F
PORT WING        1740   44      30/ 16/ 18 1011.9F
SAXON HARBOR     1840   43      10/  6/  9 1011.9S
$$

LMZ867-665-643>646-232000-
LAKE MICHIGAN

STATION/POSITION TIME  TEMP    WIND        PRES    WAVE
                       AIR SEA DIR/SP/G            HT/PER
                 (UTC) (F)     (DEG/KT/KT) (MB)    (FT/S)
CHAMBERS ISLAND  1840   48     350/  9/ 10 1009.5S
N MID LAKE BUOY  1750   42 39   50/  8/ 10 1010.8F   1
NORTHPORT PIER   1840   48      70/  5/  7 1009.8S
SISTER BAY       1736   54     100/  8/ 12   N/A
KEWAUNEE LAKESHO 1830   47      20/  9/ 12 1008.5F
SHEBOYGAN LAKESH 1800   47      20/  8/  9 1008.0F
PORT WASHINGTON  1830   52      80/  3/  4 1008.1F
ATWATER BUOY     1709   50     130/  6/  8 1007.9F
MILWAUKEE LAKESH 1830   53     330/  4/  5   N/A
S MID LAKE BUOY  1750   48 45  150/  8/  8 1008.9F   1
KENOSHA   LAKESH 1800   54     160/ 11/ 12 1007.5
$$

TC  - TEMPERATURE IN CELSIUS
VSB - VISIBILITY IN STATUTE MILES
WCI - WIND CHILL INDEX
HX  - HEAT INDEX




USA.gov is the U.S. government's official web portal to all federal, state and local government web resources and services.